Time,TemperatureF,DewpointF,PressureIn,WindDirection,WindDirectionDegrees,WindSpeedMPH,WindSpeedGustMPH,Humidity,HourlyPrecipIn,Conditions,Clouds,dailyrainin,SoftwareType,DateUTC
2013-06-01 00:02:00,74.0,74.0,29.95,SE,135,5.0,11.0,100,0.00,,,1.29,,2013-06-01 04:02:00,
2013-06-01 00:12:00,74.0,74.0,29.95,SE,135,3.0,7.0,100,0.00,,,1.29,,2013-06-01 04:12:00,
2013-06-01 00:23:00,74.0,74.0,29.95,SE,135,3.0,7.0,100,0.00,,,1.29,,2013-06-01 04:23:00,
2013-06-01 00:33:00,74.0,74.0,29.95,SSE,157,5.0,9.0,100,0.00,,,1.29,,2013-06-01 04:33:00,
2013-06-01 00:42:00,74.0,74.0,29.95,SE,135,4.0,6.0,100,0.00,,,1.29,,2013-06-01 04:42:00,
2013-06-01 00:53:00,74.0,74.0,29.95,SE,135,4.0,6.0,100,0.00,,,1.29,,2013-06-01 04:53:00,
2013-06-01 01:02:00,74.0,74.0,29.94,South,180,4.0,8.0,100,0.00,,,1.29,,2013-06-01 05:02:00,
2013-06-01 01:12:00,74.0,74.0,29.94,South,180,4.0,8.0,100,0.00,,,1.29,,2013-06-01 05:12:00,
2013-06-01 01:22:00,74.0,74.0,29.94,South,180,4.0,8.0,100,0.00,,,1.29,,2013-06-01 05:22:00,
2013-06-01 01:32:00,74.0,74.0,29.94,SE,135,3.0,7.0,100,0.00,,,1.29,,2013-06-01 05:32:00,
2013-06-01 01:42:00,74.0,74.0,29.94,ENE,67,4.0,10.0,100,0.00,,,1.29,,2013-06-01 05:42:00,
2013-06-01 01:52:00,74.0,74.0,29.94,ENE,67,4.0,10.0,100,0.00,,,1.29,,2013-06-01 05:52:00,
2013-06-01 02:01:00,74.0,74.0,29.94,SSE,157,2.0,6.0,100,0.00,,,1.29,,2013-06-01 06:01:00,
2013-06-01 02:12:00,74.0,74.0,29.92,SSE,157,2.0,4.0,100,0.00,,,1.29,,2013-06-01 06:12:00,
2013-06-01 02:22:00,74.0,74.0,29.92,SSE,157,2.0,4.0,100,0.00,,,1.29,,2013-06-01 06:22:00,
2013-06-01 02:32:00,74.0,74.0,29.92,South,180,5.0,9.0,100,0.00,,,1.29,,2013-06-01 06:32:00,
2013-06-01 02:42:00,74.0,74.0,29.91,SE,135,4.0,10.0,99,0.00,,,1.29,,2013-06-01 06:42:00,
2013-06-01 02:52:00,74.0,74.0,29.91,SE,135,4.0,10.0,99,0.00,,,1.29,,2013-06-01 06:52:00,
2013-06-01 03:01:00,74.0,73.0,29.90,South,180,4.0,8.0,97,0.00,,,1.29,,2013-06-01 07:01:00,
2013-06-01 03:11:00,74.0,73.0,29.90,SW,225,4.0,9.0,96,0.00,,,1.29,,2013-06-01 07:11:00,
2013-06-01 03:21:00,74.0,73.0,29.90,SW,225,4.0,9.0,96,0.00,,,1.29,,2013-06-01 07:21:00,
2013-06-01 03:31:00,75.0,73.0,29.88,South,180,6.0,9.0,94,0.00,,,1.29,,2013-06-01 07:31:00,
2013-06-01 03:42:00,75.0,73.0,29.85,SW,225,5.0,9.0,92,0.00,,,1.29,,2013-06-01 07:42:00,
2013-06-01 03:52:00,75.0,73.0,29.85,SW,225,5.0,9.0,92,0.00,,,1.29,,2013-06-01 07:52:00,
2013-06-01 04:02:00,74.0,70.0,29.91,WNW,292,9.0,16.0,87,0.00,,,1.29,,2013-06-01 08:02:00,
2013-06-01 04:11:00,66.0,66.0,29.95,WNW,292,3.0,7.0,100,0.00,,,1.63,,2013-06-01 08:11:00,
2013-06-01 04:21:00,66.0,66.0,29.95,WNW,292,3.0,7.0,100,0.00,,,1.63,,2013-06-01 08:21:00,
2013-06-01 04:32:00,65.0,65.0,29.93,WNW,292,2.0,5.0,100,0.00,,,1.83,,2013-06-01 08:32:00,
2013-06-01 04:42:00,65.0,65.0,29.93,WNW,292,2.0,5.0,100,0.00,,,1.83,,2013-06-01 08:42:00,
2013-06-01 04:52:00,65.0,65.0,29.93,WNW,292,2.0,5.0,100,0.00,,,1.83,,2013-06-01 08:52:00,
2013-06-01 05:01:00,64.0,64.0,29.94,WNW,292,2.0,5.0,100,0.00,,,1.89,,2013-06-01 09:01:00,
2013-06-01 05:12:00,64.0,64.0,29.94,WNW,292,2.0,5.0,100,0.00,,,1.89,,2013-06-01 09:12:00,
2013-06-01 05:21:00,64.0,64.0,29.93,WNW,292,1.0,2.0,100,0.00,,,1.89,,2013-06-01 09:21:00,
2013-06-01 05:33:00,64.0,64.0,29.92,WNW,292,2.0,3.0,100,0.00,,,1.89,,2013-06-01 09:33:00,
2013-06-01 05:42:00,64.0,64.0,29.93,WNW,292,0.0,0.0,100,0.00,,,1.90,,2013-06-01 09:42:00,
2013-06-01 05:53:00,64.0,64.0,29.93,WNW,292,0.0,0.0,100,0.00,,,1.90,,2013-06-01 09:53:00,
2013-06-01 06:02:00,64.0,64.0,29.93,WNW,292,0.0,0.0,100,0.00,,,1.93,,2013-06-01 10:02:00,
2013-06-01 06:13:00,64.0,64.0,29.93,WNW,292,0.0,0.0,100,0.00,,,1.93,,2013-06-01 10:13:00,
2013-06-01 06:22:00,64.0,64.0,29.92,WNW,292,0.0,0.0,100,0.00,,,1.97,,2013-06-01 10:22:00,
2013-06-01 06:33:00,64.0,64.0,29.93,South,180,2.0,4.0,100,0.00,,,2.00,,2013-06-01 10:33:00,
2013-06-01 06:42:00,64.0,64.0,29.93,South,180,1.0,2.0,100,0.00,,,2.01,,2013-06-01 10:42:00,
2013-06-01 06:52:00,64.0,64.0,29.93,South,180,1.0,2.0,100,0.00,,,2.01,,2013-06-01 10:52:00,
2013-06-01 07:02:00,64.0,64.0,29.90,SE,135,2.0,5.0,100,0.00,,,2.03,,2013-06-01 11:02:00,
2013-06-01 07:11:00,64.0,64.0,29.90,SE,135,2.0,5.0,100,0.00,,,2.03,,2013-06-01 11:11:00,
2013-06-01 07:21:00,64.0,64.0,29.90,SE,135,2.0,3.0,100,0.00,,,2.03,,2013-06-01 11:21:00,
2013-06-01 07:32:00,64.0,64.0,29.90,South,180,1.0,3.0,100,0.00,,,1.96,,2013-06-01 11:32:00,
2013-06-01 07:42:00,64.0,64.0,29.91,SE,135,1.0,5.0,100,0.00,,,1.97,,2013-06-01 11:42:00,
2013-06-01 07:52:00,64.0,64.0,29.91,SE,135,1.0,5.0,100,0.00,,,1.97,,2013-06-01 11:52:00,
2013-06-01 08:01:00,64.0,64.0,29.92,SSE,157,4.0,6.0,100,0.00,,,1.83,,2013-06-01 12:01:00,
2013-06-01 08:12:00,64.0,64.0,29.92,SSE,157,4.0,6.0,100,0.00,,,1.83,,2013-06-01 12:12:00,
2013-06-01 08:21:00,64.0,64.0,29.91,SE,135,3.0,6.0,100,0.00,,,1.77,,2013-06-01 12:21:00,
2013-06-01 08:32:00,64.0,64.0,29.90,SSE,157,3.0,6.0,100,0.00,,,1.64,,2013-06-01 12:32:00,
2013-06-01 08:41:00,64.0,64.0,29.90,SE,135,4.0,7.0,100,0.00,,,1.55,,2013-06-01 12:41:00,
2013-06-01 08:52:00,64.0,64.0,29.90,SE,135,4.0,7.0,100,0.00,,,1.55,,2013-06-01 12:52:00,
2013-06-01 09:01:00,64.0,64.0,29.89,South,180,6.0,9.0,100,0.00,,,1.41,,2013-06-01 13:01:00,
2013-06-01 09:11:00,64.0,64.0,29.91,SSE,157,3.0,7.0,100,0.00,,,1.23,,2013-06-01 13:11:00,
2013-06-01 09:22:00,64.0,64.0,29.91,SSE,157,3.0,7.0,100,0.00,,,1.23,,2013-06-01 13:22:00,
2013-06-01 09:32:00,64.0,64.0,29.92,South,180,2.0,4.0,100,0.00,,,0.92,,2013-06-01 13:32:00,
2013-06-01 09:42:00,64.0,64.0,29.93,SSE,157,1.0,3.0,100,0.00,,,0.85,,2013-06-01 13:42:00,
2013-06-01 09:52:00,64.0,64.0,29.93,SSE,157,1.0,3.0,100,0.00,,,0.85,,2013-06-01 13:52:00,
2013-06-01 10:02:00,64.0,64.0,29.93,SE,135,4.0,6.0,100,0.00,,,0.85,,2013-06-01 14:02:00,
2013-06-01 10:11:00,65.0,65.0,29.94,SE,135,1.0,3.0,100,0.00,,,0.85,,2013-06-01 14:11:00,
2013-06-01 10:21:00,65.0,65.0,29.94,SE,135,1.0,3.0,100,0.00,,,0.85,,2013-06-01 14:21:00,
2013-06-01 10:32:00,65.0,65.0,29.94,SE,135,4.0,6.0,100,0.00,,,0.85,,2013-06-01 14:32:00,
2013-06-01 10:42:00,65.0,65.0,29.94,SE,135,4.0,6.0,100,0.00,,,0.85,,2013-06-01 14:42:00,
2013-06-01 10:52:00,65.0,65.0,29.94,South,180,3.0,7.0,100,0.00,,,0.85,,2013-06-01 14:52:00,
2013-06-01 11:02:00,65.0,65.0,29.95,SW,225,4.0,9.0,100,0.00,,,0.86,,2013-06-01 15:02:00,
2013-06-01 11:11:00,65.0,65.0,29.95,SW,225,4.0,9.0,100,0.00,,,0.86,,2013-06-01 15:11:00,
2013-06-01 11:21:00,66.0,66.0,29.95,West,270,4.0,7.0,100,0.00,,,0.87,,2013-06-01 15:21:00,
2013-06-01 11:33:00,66.0,66.0,29.95,West,270,4.0,7.0,100,0.00,,,0.87,,2013-06-01 15:33:00,
2013-06-01 11:43:00,66.0,66.0,29.95,West,270,4.0,7.0,100,0.00,,,0.87,,2013-06-01 15:43:00,
2013-06-01 11:53:00,66.0,66.0,29.95,West,270,4.0,7.0,100,0.00,,,0.87,,2013-06-01 15:53:00,
2013-06-01 12:03:00,69.0,69.0,29.96,SSW,202,2.0,3.0,100,0.00,,,0.88,,2013-06-01 16:03:00,
2013-06-01 12:12:00,69.0,69.0,29.96,SSW,202,2.0,3.0,100,0.00,,,0.88,,2013-06-01 16:12:00,
2013-06-01 12:23:00,68.0,68.0,29.96,South,180,3.0,8.0,100,0.00,,,0.88,,2013-06-01 16:23:00,
2013-06-01 12:33:00,68.0,68.0,29.96,WSW,247,2.0,5.0,100,0.00,,,0.88,,2013-06-01 16:33:00,
2013-06-01 12:42:00,69.0,69.0,29.94,South,180,3.0,6.0,100,0.00,,,0.88,,2013-06-01 16:42:00,
2013-06-01 12:52:00,69.0,69.0,29.94,South,180,3.0,6.0,100,0.00,,,0.88,,2013-06-01 16:52:00,
2013-06-01 13:02:00,70.0,70.0,29.93,SSW,202,1.0,2.0,100,0.00,,,0.88,,2013-06-01 17:02:00,
2013-06-01 13:11:00,70.0,70.0,29.93,SSW,202,1.0,2.0,100,0.00,,,0.88,,2013-06-01 17:11:00,
2013-06-01 13:22:00,71.0,71.0,29.92,South,180,5.0,9.0,100,0.00,,,0.88,,2013-06-01 17:22:00,
2013-06-01 13:32:00,73.0,73.0,29.92,SSE,157,3.0,10.0,100,0.00,,,0.88,,2013-06-01 17:32:00,
2013-06-01 13:42:00,74.0,73.0,29.92,SE,135,3.0,6.0,98,0.00,,,0.88,,2013-06-01 17:42:00,
2013-06-01 13:52:00,74.0,73.0,29.92,SE,135,3.0,6.0,98,0.00,,,0.88,,2013-06-01 17:52:00,
2013-06-01 14:01:00,75.0,72.0,29.93,SSW,202,3.0,5.0,91,0.00,,,0.88,,2013-06-01 18:01:00,
2013-06-01 14:12:00,75.0,72.0,29.93,SSW,202,3.0,5.0,91,0.00,,,0.88,,2013-06-01 18:12:00,
2013-06-01 14:21:00,77.0,74.0,29.92,SSE,157,3.0,6.0,90,0.00,,,0.88,,2013-06-01 18:21:00,
2013-06-01 14:32:00,77.0,73.0,29.93,South,180,5.0,9.0,88,0.00,,,0.88,,2013-06-01 18:32:00,
2013-06-01 14:42:00,77.0,73.0,29.92,West,270,3.0,6.0,88,0.00,,,0.88,,2013-06-01 18:42:00,
2013-06-01 14:52:00,77.0,73.0,29.92,West,270,3.0,6.0,88,0.00,,,0.88,,2013-06-01 18:52:00,
2013-06-01 15:01:00,77.0,73.0,29.92,South,180,3.0,9.0,87,0.00,,,0.88,,2013-06-01 19:01:00,
2013-06-01 15:11:00,75.0,72.0,29.91,South,180,3.0,6.0,89,0.00,,,0.88,,2013-06-01 19:11:00,
2013-06-01 15:21:00,75.0,72.0,29.91,South,180,3.0,6.0,89,0.00,,,0.88,,2013-06-01 19:21:00,
2013-06-01 15:32:00,73.0,71.0,29.88,SSE,157,8.0,20.0,94,0.00,,,0.88,,2013-06-01 19:32:00,
2013-06-01 15:41:00,73.0,72.0,29.87,SW,225,4.0,9.0,96,0.00,,,0.88,,2013-06-01 19:41:00,
2013-06-01 15:52:00,73.0,72.0,29.87,SW,225,4.0,9.0,96,0.00,,,0.88,,2013-06-01 19:52:00,
2013-06-01 16:01:00,74.0,72.0,29.87,SSW,202,4.0,9.0,92,0.00,,,0.88,,2013-06-01 20:01:00,
2013-06-01 16:12:00,74.0,72.0,29.87,SSW,202,4.0,9.0,92,0.00,,,0.88,,2013-06-01 20:12:00,
2013-06-01 16:21:00,74.0,71.0,29.85,ESE,112,7.0,9.0,91,0.00,,,0.88,,2013-06-01 20:21:00,
2013-06-01 16:32:00,73.0,71.0,29.83,South,180,7.0,10.0,92,0.00,,,0.88,,2013-06-01 20:32:00,
2013-06-01 16:41:00,74.0,72.0,29.83,SE,135,5.0,10.0,93,0.00,,,0.88,,2013-06-01 20:41:00,
2013-06-01 16:52:00,74.0,72.0,29.83,SE,135,5.0,10.0,93,0.00,,,0.88,,2013-06-01 20:52:00,
2013-06-01 17:01:00,74.0,72.0,29.83,SE,135,5.0,10.0,93,0.00,,,0.88,,2013-06-01 21:01:00,
2013-06-01 17:11:00,74.0,71.0,29.84,SW,225,4.0,7.0,91,0.00,,,0.88,,2013-06-01 21:11:00,
2013-06-01 17:21:00,74.0,71.0,29.84,SW,225,4.0,7.0,91,0.00,,,0.88,,2013-06-01 21:21:00,
2013-06-01 17:33:00,74.0,72.0,29.84,SSW,202,3.0,4.0,93,0.00,,,0.88,,2013-06-01 21:33:00,
2013-06-01 17:42:00,74.0,72.0,29.84,SSW,202,3.0,4.0,93,0.00,,,0.88,,2013-06-01 21:42:00,
2013-06-01 17:53:00,74.0,72.0,29.84,SE,135,2.0,5.0,92,0.00,,,0.88,,2013-06-01 21:53:00,
2013-06-01 18:03:00,74.0,72.0,29.85,WSW,247,1.0,4.0,94,0.00,,,0.88,,2013-06-01 22:03:00,
2013-06-01 18:12:00,74.0,72.0,29.85,WNW,292,3.0,5.0,92,0.00,,,0.88,,2013-06-01 22:12:00,
2013-06-01 18:23:00,74.0,72.0,29.85,WNW,292,3.0,5.0,92,0.00,,,0.88,,2013-06-01 22:23:00,
2013-06-01 18:33:00,74.0,72.0,29.85,WNW,292,3.0,5.0,92,0.00,,,0.88,,2013-06-01 22:33:00,
2013-06-01 18:42:00,74.0,72.0,29.85,WNW,292,3.0,5.0,92,0.00,,,0.88,,2013-06-01 22:42:00,
2013-06-01 18:53:00,74.0,72.0,29.85,WNW,292,3.0,5.0,92,0.00,,,0.88,,2013-06-01 22:53:00,
2013-06-01 19:02:00,75.0,72.0,29.85,South,180,0.0,1.0,91,0.00,,,0.88,,2013-06-01 23:02:00,
2013-06-01 19:11:00,75.0,73.0,29.85,WSW,247,2.0,2.0,93,0.00,,,0.88,,2013-06-01 23:11:00,
2013-06-01 19:22:00,75.0,73.0,29.85,WSW,247,2.0,2.0,93,0.00,,,0.88,,2013-06-01 23:22:00,
2013-06-01 19:32:00,75.0,71.0,29.85,West,270,5.0,7.0,88,0.00,,,0.88,,2013-06-01 23:32:00,
2013-06-01 19:42:00,75.0,71.0,29.85,West,270,5.0,7.0,88,0.00,,,0.88,,2013-06-01 23:42:00,
2013-06-01 19:52:00,75.0,72.0,29.85,South,180,1.0,2.0,89,0.00,,,0.88,,2013-06-01 23:52:00,
2013-06-01 20:02:00,74.0,72.0,29.85,West,270,3.0,5.0,92,0.00,,,0.88,,2013-06-02 00:02:00,
2013-06-01 20:11:00,74.0,72.0,29.85,West,270,3.0,5.0,92,0.00,,,0.88,,2013-06-02 00:11:00,
2013-06-01 20:21:00,73.0,71.0,29.85,West,270,3.0,5.0,94,0.00,,,0.88,,2013-06-02 00:21:00,
2013-06-01 20:32:00,73.0,71.0,29.85,West,270,0.0,2.0,95,0.00,,,0.88,,2013-06-02 00:32:00,
2013-06-01 20:41:00,73.0,71.0,29.85,West,270,0.0,2.0,95,0.00,,,0.88,,2013-06-02 00:41:00,
2013-06-01 20:51:00,72.0,70.0,29.85,WSW,247,2.0,3.0,94,0.00,,,0.88,,2013-06-02 00:51:00,
2013-06-01 21:01:00,71.0,69.0,29.84,West,270,0.0,0.0,95,0.00,,,0.88,,2013-06-02 01:01:00,
2013-06-01 21:11:00,71.0,69.0,29.84,West,270,0.0,0.0,95,0.00,,,0.88,,2013-06-02 01:11:00,
2013-06-01 21:21:00,71.0,69.0,29.84,West,270,0.0,0.0,95,0.00,,,0.88,,2013-06-02 01:21:00,
2013-06-01 21:32:00,69.0,68.0,29.85,South,180,0.0,1.0,98,0.00,,,0.88,,2013-06-02 01:32:00,
2013-06-01 21:41:00,69.0,68.0,29.85,South,180,0.0,1.0,98,0.00,,,0.88,,2013-06-02 01:41:00,
2013-06-01 21:52:00,69.0,68.0,29.85,South,180,0.0,1.0,98,0.00,,,0.88,,2013-06-02 01:52:00,
2013-06-01 22:01:00,69.0,69.0,29.85,SSE,157,1.0,4.0,100,0.00,,,0.88,,2013-06-02 02:01:00,
2013-06-01 22:12:00,69.0,69.0,29.85,SSE,157,1.0,4.0,100,0.00,,,0.88,,2013-06-02 02:12:00,
2013-06-01 22:21:00,69.0,69.0,29.85,South,180,3.0,7.0,100,0.00,,,0.88,,2013-06-02 02:21:00,
2013-06-01 22:32:00,69.0,69.0,29.85,SSW,202,2.0,5.0,100,0.00,,,0.88,,2013-06-02 02:32:00,
2013-06-01 22:41:00,69.0,69.0,29.85,SSW,202,2.0,5.0,100,0.00,,,0.88,,2013-06-02 02:41:00,
2013-06-01 22:52:00,69.0,69.0,29.85,South,180,3.0,5.0,100,0.00,,,0.88,,2013-06-02 02:52:00,
2013-06-01 23:02:00,69.0,69.0,29.87,SSE,157,0.0,1.0,100,0.00,,,0.88,,2013-06-02 03:02:00,
2013-06-01 23:11:00,69.0,69.0,29.87,SSE,157,0.0,1.0,100,0.00,,,0.88,,2013-06-02 03:11:00,
2013-06-01 23:21:00,68.0,68.0,29.85,South,180,1.0,2.0,100,0.00,,,0.88,,2013-06-02 03:21:00,
2013-06-01 23:33:00,68.0,68.0,29.87,WNW,292,0.0,1.0,100,0.00,,,0.88,,2013-06-02 03:33:00,
2013-06-01 23:43:00,68.0,68.0,29.87,West,270,1.0,3.0,100,0.00,,,0.88,,2013-06-02 03:43:00,
2013-06-01 23:53:00,68.0,68.0,29.87,West,270,1.0,3.0,100,0.00,,,0.88,,2013-06-02 03:53:00,